Location: NJAA Observatory
(40.6819°N, 74.8979°W)
Time: 22:52:58
(UTC-04:00)

Daily predictions for brighter satellites

Satellite Brightness Start Highest point End
(mag) Time Altitude Azimuth Time Altitude Azimuth Time Altitude Azimuth
Cosmos 2026 Rocket 4.5 20:58:42 10° NNW 21:04:41 64° W 21:10:40 10° S
Cosmos 1378 3.1 21:03:53 10° S 21:07:36 78° E 21:11:19 10° N
Resurs 01 Rocket 1.8 21:03:47 10° S 21:08:11 77° WSW 21:12:38 10° NNW
Cosmos 1602 Rocket 3.6 21:04:47 10° S 21:09:13 74° E 21:13:43 10° NNE
Cosmos 1943 3.3 21:04:09 10° NNW 21:09:49 66° ENE 21:15:24 10° SSE
ERS-1 Rocket 4.3 21:07:33 10° ESE 21:11:35 25° ENE 21:15:37 10° NNE
Cosmos 1812 Rocket 3.8 21:07:39 10° N 21:11:54 53° E 21:16:10 10° SSE
Cosmos 2279 Rocket 4.4 21:10:56 10° SSW 21:17:04 69° W 21:23:15 10° N
NOSS 2-3 (C) 3.7 21:14:58 10° SSW 21:19:26 67° ESE 21:24:35 10° NE
Iridium 4 Rocket 4.2 21:14:15 10° SSE 21:19:38 42° E 21:24:44 10° NNE
Cosmos 1470 2.8 21:19:43 10° N 21:23:37 80° W 21:27:31 10° S
CZ-4B DEB 4.5 21:21:36 10° SSE 21:25:02 68° ENE 21:28:29 10° N
Cosmos 1758 Rocket 4.4 21:21:35 10° SSE 21:25:33 32° E 21:29:30 10° NNE
SPOT 5 4.5 21:22:29 10° ESE 21:26:18 22° ENE 21:30:14 10° NNE
USA 215 4.0 21:20:09 10° SSE 21:26:22 46° SW 21:32:38 10° WNW
Meteor 2-5 Rocket 4.2 21:22:33 10° SSE 21:28:14 48° E 21:33:54 10° NNE
Cosmos 1655 Rocket 4.5 21:22:50 10° NNW 21:29:02 65° W 21:35:10 10° S
Cosmos 1452 Rocket 3.7 21:24:09 10° NNW 21:29:22 58° ENE 21:34:12 12° SSE
Cosmos 2056 Rocket 4.3 21:28:36 10° NNW 21:33:33 48° WSW 21:38:32 10° S
Lacrosse 5 2.6 21:29:11 10° S 21:33:34 30° ESE 21:37:59 10° ENE
Cosmos 1420 Rocket 4.2 21:28:44 10° N 21:33:50 55° ENE 21:38:17 13° SE
ARGOS 3.2 21:29:10 10° SSE 21:34:32 68° ENE 21:39:57 10° N
ERS-2 3.4 21:31:37 10° S 21:35:04 39° W 21:38:33 10° NNW
Spot 2 Rocket 4.0 21:30:20 10° S 21:35:17 59° W 21:40:18 10° NNW
H-2A R/B 2.3 21:33:42 11° SSE 21:38:37 60° ENE 21:43:54 10° N
Cosmos 1238 Rocket 3.3 21:38:58 17° SE 21:40:28 25° E 21:42:58 10° NNE
Cosmos 1844 Rocket 3.7 21:36:28 11° SSE 21:40:47 25° ESE 21:45:21 10° NE
Helios 1A 4.4 21:40:40 14° ESE 21:43:20 25° ENE 21:46:45 10° NNE
Cosmos 1726 4.4 21:42:28 10° NE 21:43:49 12° ENE 21:45:12 10° E
Cosmos 158 Rocket 4.2 21:44:20 10° SSW 21:49:40 78° WNW 21:54:55 10° NNE
MetOp-A 4.2 21:46:29 11° SSE 21:51:41 89° WSW 21:57:04 10° NNW
Cosmos 1825 Rocket 3.5 21:47:51 10° S 21:52:18 77° E 21:56:47 10° N
Cosmos 2266 Rocket 4.2 21:49:07 10° N 21:55:32 77° W 22:01:51 10° S
Cosmos 1269 Rocket 4.4 21:51:43 10° S 21:56:44 45° ESE 22:01:47 10° NNE
Cosmos 1908 4.4 22:00:02 10° NNE 22:03:24 28° ENE 22:04:52 22° ESE
CSL-04 DEB 4.3 22:02:21 22° SSE 22:04:47 69° ENE 22:08:42 10° N
Cosmos 1315 Rocket 2.8 22:01:49 11° S 22:05:43 87° E 22:09:49 10° N
Helios 1B rocket 3.5 22:02:48 10° NE 22:06:21 28° E 22:07:34 24° SE
Cosmos 2263 Rocket 3.7 22:05:10 10° SW 22:10:27 39° WNW 22:15:46 10° N
Cosmos 921 Rocket 4.1 22:06:51 10° N 22:10:54 33° ENE 22:13:00 22° ESE
GENESIS II 4.1 22:14:45 10° SSW 22:18:36 66° ESE 22:22:29 10° NE
CARTOSAT-1 4.4 22:19:14 25° ESE 22:21:01 37° ENE 22:25:01 10° N
Cosmos 494 Rocket 4.4 22:19:46 24° SSE 22:22:28 43° ESE 22:27:27 10° NNE
ATLAS 3B R/B 3.7 22:16:49 10° NNW 22:22:47 33° NE 22:27:37 14° ESE
Cosmos 1553 Rocket 4.1 22:20:08 22° SSE 22:23:57 54° E 22:29:50 10° NNE
Cosmos 1437 2.6 22:23:00 10° N 22:26:10 87° W 22:27:04 44° S
Landsat 7 4.0 22:24:03 28° SE 22:26:25 61° ENE 22:31:07 10° N
CZ-2C R/B 3.7 22:26:07 10° NE 22:30:38 26° E 22:31:48 24° ESE
SL-8 R/B 4.0 22:26:22 10° SSW 22:30:56 43° SE 22:35:31 10° ENE
Aureole 1 Rocket 4.0 22:29:05 10° SW 22:31:56 34° WNW 22:35:14 10° N
Cosmos 1340 3.4 22:32:30 10° N 22:36:03 37° ENE 22:36:43 34° ESE
OAO 3 Rocket 3.6 22:32:30 10° WSW 22:37:06 40° S 22:38:10 35° SE
ATLAS 2AS CENTAUR R/B 3.0 22:33:23 10° SSW 22:41:08 80° ESE 22:49:18 10° NE
Cosmos 1300 4.1 22:38:51 10° NNE 22:42:03 25° ENE 22:42:25 24° E
Cosmos 1626 4.4 22:43:04 13° ENE 22:43:04 13° ENE 22:44:22 10° NE
Iridium 81 4.0 22:43:14 60° WNW 22:43:14 60° WNW 22:45:52 10° N
Cosmos 1674 2.7 22:43:28 34° SSW 22:45:02 75° W 22:48:52 10° N
Terra 1.9 22:43:58 36° SE 22:45:44 62° ENE 22:50:27 10° N
Cosmos 1842 Rocket 3.9 22:42:40 10° N 22:46:54 50° E 22:47:57 40° ESE
ERS-1 Rocket 4.0 22:46:49 18° SSW 22:50:08 39° W 22:54:51 10° NNW
Cosmos-2242 3.7 22:46:28 10° NNW 22:50:43 49° W 22:52:50 26° SSW
Cosmos 1346 Rocket 3.5 22:48:10 10° NNW 22:52:00 47° W 22:53:34 30° SSW
Cosmos 724 4.4 22:46:19 10° NNW 22:52:23 78° ENE 22:55:09 34° SE
SL-14 R/B 3.8 22:52:55 38° E 22:52:57 38° E 22:56:36 10° NNE
Cosmos 2278 Rocket 2.9 22:53:37 32° ESE 22:54:25 33° ESE 22:59:27 10° NE
COSMOS 2406 3.4 22:51:41 10° NNW 22:57:27 65° ENE 22:59:44 36° SE
Meteor 1-29 2.7 22:54:55 10° NNE 22:58:20 90° NE 22:58:37 74° SSW
IGS 5A 3.4 22:57:56 48° S 22:59:02 79° WSW 23:03:12 10° NNW
OE (NEXTSAT) 4.4 22:58:38 10° WNW 23:02:10 75° NNE 23:02:28 68° ENE
SPOT 5 3.8 23:01:31 25° SSW 23:03:59 45° W 23:08:57 10° NNW
H-2A R/B 4.4 23:06:04 28° SE 23:06:50 28° SE 23:30:52 10° E
Spot 1 4.1 23:06:41 50° S 23:07:43 75° WSW 23:12:12 10° NNW
Cosmos 2084 3.1 23:06:40 10° NW 23:10:30 67° WSW 23:10:42 65° SW
Cosmos 1844 3.9 23:09:51 17° SSW 23:14:19 70° WNW 23:20:05 10° NNE
Lacrosse 5 2.9 23:11:29 10° WSW 23:16:22 47° NW 23:21:16 10° NE
NOSS 3-4 (A) 3.7 23:17:17 41° SE 23:18:19 45° ESE 23:24:18 10° NE
NOSS 3-4 (C) 3.7 23:17:26 41° SE 23:18:25 44° ESE 23:24:23 10° NE
H-2A R/B 4.4 23:15:08 10° SW 23:18:26 17° W 23:21:48 10° NW
Cosmos 1745 Rocket 4.1 23:12:17 10° N 23:18:37 76° W 23:21:21 36° S
Cosmos 1726 2.9 23:15:46 10° NNW 23:19:20 43° W 23:19:50 40° WSW
Mayak 0.8 23:20:03 10° NE 23:21:47 15° ENE 23:21:47 15° ENE
Cosmos 1844 Rocket 3.7 23:18:58 10° SW 23:24:23 45° WNW 23:29:48 10° NNE
Aureole 3 Rocket 4.5 23:29:45 37° SSE 23:33:06 64° E 23:39:27 10° NNE
CENTAUR R/B 4.2 23:27:43 10° NNW 23:34:54 37° NE 23:41:34 14° ESE
Cosmos 2221 2.4 23:35:40 10° N 23:40:01 80° W 23:40:14 76° SW
Cosmos 2082 Rocket 3.3 23:37:22 10° N 23:42:33 34° ENE 23:44:35 27° E
USA 234 4.0 23:38:39 10° ENE 23:43:54 33° ESE 23:43:54 33° ESE
ADEOS Rocket 3.7 23:39:40 10° NNE 23:45:02 35° E 23:45:45 34° ESE
CZ-2C R/B 4.0 23:44:02 35° SW 23:45:59 47° W 23:51:34 10° NNW
APEX 4.0 23:46:46 10° NNW 23:48:49 39° NW 23:48:49 39° NW
ATLAS 5 CENTAUR R/B 2.6 23:51:38 36° E 23:51:38 36° E 23:55:02 10° NE
COBE Rocket 3.9 23:46:40 10° N 23:51:44 85° WNW 23:52:40 61° SSW
SL-27 R/B 4.4 23:49:10 10° N 23:51:49 23° NE 23:51:49 23° NE
Cosmos 1709 Rocket 3.9 23:46:16 10° N 23:52:32 82° W 23:54:14 51° S
Cosmos 1328 3.9 23:54:36 71° NNW 23:54:36 71° NNW 23:58:12 10° N
Cosmos 1833 Rocket 3.3 23:48:56 10° NNW 23:54:21 46° ENE 23:55:49 38° ESE
SAR-Lupe-4 4.2 23:55:12 55° NNW 23:55:12 55° NNW 23:58:05 10° NNW
